Location: Newark
(44.3681°N, 100.3364°W)
Time: 12:34:34
(UTC+00:00)

Explorer 7 - Pass Details

Date: 23 February 2020
Orbit: 485 x 679 km, 50.3° (Epoch: 05 April)

Event Time Altitude Azimuth Distance (km) Brightness Sun altitude
Rises 16:17:36 0° 180° (S) 2,996 11.2 25.2°
Reaches altitude 10° 16:21:47 10° 145° (SE) 2,058 11.6 25.7°
Maximum altitude 16:23:04 11° 129° (SE) 1,980 11.5 25.8°
Drops below altitude 10° 16:24:21 10° 113° (ESE) 2,036 11.0 26.0°
Sets 16:28:24 0° 78° (ENE) 2,900 10.9 26.5°
